User: anonymous   Login
Location: ??????
(42.0089°N, 44.3281°E)
Time: 17:10:00
(UTC+00:00)
Language:

Cosmos 2333 Rocket - Orbit

View from above orbital plane
View from above orbital plane
View from above satellite
View from above satellite

Ground track
Ground track

The orbit data is extracted from the following two-line orbital elements,

1 24298U 96051B   22024.47464621 -.00000064  00000-0 -82345-5 0  9999
2 24298  70.8202 114.6467 0018288 210.6934 149.3118 14.12402693309367
Epoch (UTC): 24 January 2022 11:23:29
Eccentricity: 0.0018288
inclination: 70.8202°
perigee height: 838 km
apogee height: 864 km
right ascension of ascending node: 114.6467°
argument of perigee: 210.6934°
revolutions per day: 14.12402693
mean anomaly at epoch: 149.3118°
orbit number at epoch: 30936

The dashed part of the orbit path shows where the satellite is in the earth's shadow,  

DLR